SCP
0 0 0 0 0 0 0 0 0 0 0 0 0 0 0 0 0 0 0 0 0 0 0 0 0 0 0 0 0 0 0 0 0 0 0 0 0 0 0 0 0 0 0 0
0 0 0 0 0 0 0 0 0 0 0 0 0 0 0 0 0 0 0 0 0 0 0 0 0 0 0 0 0 0 0 0 0 0 0 0 0 0 0 0 0 0 0 0
0 0 0 0 0 0 0 0 0 0 0 0 0 0 0 0 0 0 0 0 0 0 0 0 0 0 0 0 0 0 0 0 0 0 0 0 0 0 0 0 0 0 0 0
0 0 0 0 0 0 0 0 0 0 0 0 0 0 0 0 0 0 0 0 0 0 0 0 0 0 0 0 0 0 0 0 0 0 0 0 0 0 0 0 0 0 0 0
0 0 0 0 0 0 0 0 0 0 0 0 0 0 0 0 0 0 0 0 0 0 0 0 0 0 0 0 0 0 0 0 0 0 0 0 0 0 0 0 0 0 0 0
0 0 0 0 0 0 0 0 0 0 0 0 0 0 0 0 0 0 0 0 0 0 0 0 0 0 0 0 0 0 0 0 0 0 0 0 0 0 0 0 0 0 0 0
0 0 0 0 0 0 0 0 0 0 0 0 0 0 0 0 0 0 0 0 0 0 0 0 0 0 0 0 0 0 0 0 0 0 0 0 0 0 0 0 0 0 0 0
0 0 0 0 0 0 0 0 0 0 0 0 0 0 0 0 0 0 0 0 0 0 0 0 0 0 0 0 0 0 0 0 0 0 0 0 0 0 0 0 0 0 0 0
0 0 0 0 0 0 0 0 0 0 0 0 0 0 0 0 0 0 0 0 0 0 0 0 0 0 0 0 0 0 0 0 0 0 0 0 0 0 0 0 0 0 0 0
0 0 0 0 0 0 0 0 0 0 0 0 0 0 0 0 0 0 0 0 0 0 0 0 0 0 0 0 0 0 0 0 0 0 0 0 0 0 0 0 0 0 0 0
0 0 0 0 0 0 0 0 0 0 0 0 0 0 0 0 0 0 0 0 0 0 0 0 0 0 0 0 0 0 0 0 0 0 0 0 0 0 0 0 0 0 0 0
0 0 0 0 0 0 0 0 0 0 0 0 0 0 0 0 0 0 0 0 0 0 0 0 0 0 0 0 0 0 0 0 0 0 0 0 0 0 0 0 0 0 0 0
0 0 0 0 0 0 0 0 0 0 0 0 0 0 0 0 0 0 0 0 0 0 0 0 0 0 0 0 0 0 0 0 0 0 0 0 0 0 0 0 0 0 0 0
0 0 0 0 0 0 0 0 0 0 0 0 0 0 0 0 0 0 0 0 0 0 0 0 0 0 0 0 0 0 0 0 0 0 0 0 0 0 0 0 0 0 0 0
0 0 0 0 0 0 0 0 0 0 0 0 0 0 0 0 0 0 0 0 0 0 0 0 0 0 0 0 0 0 0 0 0 0 0 0 0 0 0 0 0 0 0 0
0 0 0 0 0 0 0 0 0 0 0 0 0 0 0 0 0 0 0 0 0 0 0 0 0 0 0 0 0 0 0 0 0 0 0 0 0 0 0 0 0 0 0 0
0 0 0 0 0 0 0 0 0 0 0 0 0 0 0 0 0 0 0 0 0 0 0 0 0 0 0 0 0 0 0 0 0 0 0 0 0 0 0 0 0 0 0 0
0 0 0 0 0 0 0 0 0 0 0 0 0 0 0 0 0 0 0 0 0 0 0 0 0 0 0 0 0 0 0 0 0 0 0 0 0 0 0 0 0 0 0 0
0 0 0 0 0 0 0 0 0 0 0 0 0 0 0 0 0 0 0 0 0 0 0 0 0 0 0 0 0 0 0 0 0 0 0 0 0 0 0 0 0 0 0 0
0 0 0 0 0 0 0 0 0 0 0 0 0 0 0 0 0 0 0 0 0 0 0 0 0 0 0 0 0 0 0 0 0 0 0 0 0 0 0 0 0 0 0 0
0 0 0 0 0 0 0 0 0 0 0 0 0 0 0 0 0 0 0 0 0 0 0 0 0 0 0 0 0 0 0 0 0 0 0 0 0 0 0 0 0 0 0 0
0 0 0 0 0 0 0 0 0 0 0 0 0 0 0 0 0 0 0 0 0 0 0 0 0 0 0 0 0 0 0 0 0 0 0 0 0 0 0 0 0 0 0 0
0 0 0 0 0 0 0 0 0 0 0 0 0 0 0 0 0 0 0 0 0 0 0 0 0 0 0 0 0 0 0 0 0 0 0 0 0 0 0 0 0 0 0 0
0 0 0 0 0 0 0 0 0 0 0 0 0 0 0 0 0 0 0 0 0 0 0 0 0 0 0 0 0 0 0 0 0 0 0 0 0 0 0 0 0 0 0 0
0 0 0 0 0 0 0 0 0 0 0 0 0 0 0 0 0 0 0 0 0 0 0 0 0 0 0 0 0 0 0 0 0 0 0 0 0 0 0 0 0 0 0 0
0 0 0 0 0 0 0 0 0 0 0 0 0 0 0 0 0 0 0 0 0 0 0 0 0 0 0 0 0 0 0 0 0 0 0 0 0 0 0 0 0 0 0 0
0 0 0 0 0 0 0 0 0 0 0 0 0 0 0 0 0 0 0 0 0 0 0 0 0 0 0 0 0 0 0 0 0 0 0 0 0 0 0 0 0 0 0 0
Wind_Speed
5 6 5 5 6 7 6 7 7 7 6 9 12 11 9 8 6 5 4 3 3 3 4 3 4 4 2 1 0 1 2 3 3 3 4 5 5 5 5 6 6 5 5 6
3 5 4 4 6 7 7 6 7 5 7 7 7 7 7 7 7 6 5 4 3 2 2 2 4 4 2 1 1 2 2 1 2 3 4 4 4 5 5 5 5 5 5 5
3 2 1 6 7 8 7 7 7 8 8 3 5 9 10 9 8 7 6 5 3 2 2 3 4 4 3 3 2 2 2 1 1 2 3 4 4 4 4 4 4 5 5 5
1 2 3 8 4 5 6 6 7 6 6 10 10 10 9 9 8 7 7 6 4 2 2 2 2 2 3 3 3 2 2 1 1 2 3 3 4 4 4 3 4 4 4 5
2 1 6 6 3 2 2 5 5 7 7 9 4 3 4 7 8 9 8 6 5 4 3 2 2 2 3 3 2 2 2 1 1 0 1 3 3 4 3 3 3 3 3 5
3 0 4 6 2 2 2 5 5 6 8 8 8 4 7 7 7 7 7 6 5 4 3 2 2 4 5 4 3 3 3 3 2 1 1 1 3 3 3 3 3 3 3 4
3 3 8 7 1 3 1 7 4 5 8 11 11 10 6 6 8 8 7 6 5 4 4 3 3 5 5 4 4 5 4 3 2 2 2 2 2 2 2 3 4 4 4 4
4 2 8 4 5 6 10 5 3 4 7 10 10 6 5 7 8 9 7 6 6 5 4 4 4 5 5 5 6 5 4 3 3 3 3 1 0 2 2 3 4 4 4 4
9 9 8 6 9 7 5 4 3 4 6 9 8 7 8 7 8 9 8 7 6 6 5 4 4 6 6 6 6 5 4 4 4 3 2 1 1 0 1 2 2 2 3 3
3 6 5 6 7 5 5 5 4 4 5 8 9 9 9 8 8 8 8 7 6 6 5 5 5 6 7 6 6 6 5 5 4 3 3 2 1 1 0 0 1 1 2 2
3 6 6 5 3 6 6 6 6 4 5 8 10 9 10 9 9 9 8 7 6 7 7 7 6 7 7 6 6 6 5 5 4 4 4 3 2 2 2 2 3 2 1 1
4 5 3 4 6 5 3 5 6 5 4 5 8 10 10 10 9 9 9 7 7 8 8 8 7 7 7 7 7 6 4 4 4 4 3 3 2 2 3 3 4 4 4 3
5 7 2 4 8 10 6 6 6 4 4 5 6 8 10 9 9 9 9 9 10 10 9 8 7 7 7 7 7 6 5 4 3 4 4 4 3 3 3 3 4 5 5 5
8 7 7 8 9 11 10 10 8 7 6 4 4 5 6 8 8 9 11 12 11 10 9 9 8 9 8 7 7 7 6 6 5 4 4 4 4 4 4 3 3 3 4 6
9 8 5 5 8 12 12 12 12 11 11 9 5 4 5 7 10 11 11 10 9 9 9 9 9 10 7 8 8 8 6 4 4 4 4 4 4 4 4 4 3 3 2 3
5 6 8 11 13 14 14 14 13 13 12 10 9 8 7 9 10 10 9 9 10 12 11 11 11 11 8 9 9 7 6 9 7 4 4 4 4 4 4 4 4 4 4 4
7 10 11 12 12 12 12 11 10 11 11 12 12 11 9 8 7 8 9 10 13 13 13 13 13 10 9 10 9 7 6 6 9 5 4 5 4 4 4 4 4 5 5 6
6 6 5 6 7 9 11 12 12 13 13 13 14 12 11 9 8 10 10 10 9 10 10 11 11 10 10 10 9 7 6 6 5 5 5 5 5 5 4 5 5 6 4 4
7 7 8 8 8 8 9 11 12 12 13 14 15 14 13 11 10 10 9 8 10 12 12 12 15 12 11 12 12 7 7 7 6 5 5 7 6 5 5 5 5 5 5 4
7 7 8 8 9 9 9 10 11 11 13 14 15 15 16 16 15 13 9 8 10 10 10 11 12 11 11 12 14 8 9 8 8 6 6 5 5 6 5 5 5 5 6 6
5 6 6 7 7 8 8 9 10 12 12 13 13 14 15 15 15 14 10 8 9 8 8 12 11 9 10 11 14 9 9 9 8 8 7 6 6 6 6 6 6 6 6 6
3 3 4 5 6 6 7 7 8 10 11 12 13 13 15 15 16 14 11 8 12 15 9 7 8 11 14 14 10 10 10 10 9 7 7 7 7 7 6 6 6 6 6 6
2 2 3 4 4 5 6 6 8 9 10 11 11 12 13 11 10 11 13 13 14 20 13 7 10 15 18 13 9 11 11 11 10 9 9 8 8 7 7 7 6 6 6 6
2 3 3 3 3 4 6 6 7 6 8 8 8 9 10 10 9 8 9 16 22 22 13 13 14 14 15 10 9 10 10 10 10 9 9 8 7 7 7 7 6 6 6 7
4 4 3 4 3 3 4 5 6 6 7 6 8 8 7 6 8 10 11 13 21 20 14 17 20 15 8 6 7 9 9 9 9 9 9 8 7 8 7 7 7 6 6 6
4 4 4 5 4 4 3 3 3 4 5 6 7 7 7 7 8 8 9 12 15 18 14 12 14 13 8 5 5 6 7 8 9 9 8 8 9 8 7 8 9 7 6 6
5 4 3 4 4 4 4 3 3 4 4 4 6 7 7 8 8 8 10 10 10 11 11 12 12 13 12 9 7 5 4 4 5 6 7 8 7 8 8 10 8 7 6 6
Wind_Direction
222 212 181 191 198 194 184 191 202 235 230 231 212 206 208 213 223 234 245 242 232 244 259 257 249 252 254 265 349 89 61 33 10 1 4 6 5 4 7 11 17 8 10 8
282 234 207 232 228 210 216 212 218 233 257 243 196 186 202 211 214 222 226 219 214 237 268 252 239 237 234 213 186 129 94 47 9 10 9 5 1 3 6 4 1 6 9 6
308 320 84 277 242 208 214 210 192 213 234 175 165 194 203 206 208 210 209 205 202 218 249 244 232 215 203 198 165 127 110 71 20 12 9 358 359 2 358 354 357 1 1 2
40 49 244 256 258 195 207 232 210 210 204 181 193 202 203 196 194 199 197 194 196 195 216 238 226 191 176 156 139 131 122 116 19 14 5 355 358 353 343 339 347 352 357 358
91 329 287 291 276 171 193 277 226 207 206 197 177 146 244 216 191 189 193 191 194 190 189 196 191 164 144 137 134 131 149 187 218 342 357 353 350 339 331 336 343 345 350 358
104 128 262 263 265 120 87 288 266 196 194 177 139 168 245 221 194 186 182 179 180 174 170 177 177 142 138 151 158 175 197 207 210 209 250 315 320 320 324 333 341 351 4 6
165 233 266 258 168 82 116 251 266 195 186 172 182 201 218 186 184 181 179 184 174 164 180 201 174 143 150 171 194 206 204 203 211 226 239 264 316 327 339 357 6 8 12 10
153 198 266 225 144 185 220 238 257 205 191 189 206 210 198 180 179 177 180 183 174 174 202 213 182 158 169 198 211 206 203 210 222 234 246 207 0 346 0 15 18 8 8 5
182 211 238 208 205 218 191 215 235 209 211 192 190 191 188 184 181 182 185 189 186 187 204 217 197 179 187 210 204 201 206 223 233 236 239 216 187 329 8 16 21 2 5 0
228 266 265 248 245 255 231 240 248 218 202 181 188 189 187 185 187 190 193 194 193 191 204 219 211 204 205 203 195 195 210 228 230 225 233 234 226 202 166 333 351 348 350 345
277 295 325 335 289 258 253 264 270 249 205 194 190 191 190 191 194 197 198 197 190 195 207 218 213 215 215 203 188 196 214 227 225 215 212 218 224 226 214 224 208 212 249 280
251 278 259 292 338 349 310 282 269 257 239 212 195 198 195 199 200 198 200 197 196 203 209 215 211 216 216 204 192 192 209 221 217 208 207 207 211 252 274 247 245 233 228 230
291 291 281 325 4 4 351 328 308 278 254 239 221 206 199 203 204 202 203 200 201 205 209 210 209 216 216 202 194 194 202 210 210 203 201 202 203 211 247 277 264 264 259 258
349 10 28 9 352 352 356 352 356 357 337 301 254 223 208 209 208 205 209 209 207 206 208 207 209 219 215 197 194 200 203 207 200 202 203 203 206 209 208 214 240 266 261 252
7 25 21 347 4 12 9 9 11 2 348 338 318 274 234 217 216 217 216 211 205 207 210 207 211 222 209 192 194 198 197 200 201 202 205 206 207 206 207 211 215 225 243 262
351 19 26 25 19 11 10 10 4 352 343 334 327 310 277 245 233 226 216 202 198 211 213 209 215 219 198 190 193 196 200 205 195 198 206 210 208 205 209 211 212 210 216 221
34 25 18 17 11 7 6 0 353 345 341 338 329 317 306 286 261 245 230 215 211 214 210 208 215 211 194 191 191 194 194 204 204 197 205 209 210 211 211 208 209 213 220 212
41 35 24 12 5 1 360 358 356 352 348 339 335 334 328 312 282 261 246 230 222 225 219 213 211 201 196 194 193 192 190 194 194 199 206 211 215 215 211 210 212 215 220 212
25 22 16 11 7 3 359 357 353 349 348 348 346 343 335 325 309 288 268 241 226 230 230 219 211 201 200 200 192 189 190 193 198 204 207 216 219 217 212 211 212 211 205 197
19 15 11 6 4 3 360 356 352 353 353 352 351 349 347 341 334 321 294 258 243 240 230 213 207 205 204 202 193 190 193 195 198 201 204 208 212 216 215 214 213 210 205 203
17 10 7 3 358 356 353 350 352 352 351 353 354 349 342 338 339 337 328 305 294 284 260 226 212 208 203 199 194 193 196 198 199 200 202 206 211 215 217 217 216 212 209 207
2 357 354 353 352 346 342 344 347 348 349 351 353 351 348 345 344 342 336 327 322 318 295 252 229 214 206 198 194 194 199 201 203 201 201 204 206 211 216 217 218 217 213 209
304 309 322 331 333 327 334 343 345 345 346 345 346 347 345 339 340 342 336 334 333 328 317 281 254 230 211 201 199 199 201 203 204 205 206 206 207 208 211 214 215 215 213 211
265 278 288 301 326 339 335 329 333 333 333 332 335 337 337 336 336 337 327 329 337 338 332 320 300 263 227 211 203 204 204 204 205 206 206 205 205 207 209 210 212 213 214 213
260 268 276 293 302 293 291 307 321 326 331 329 328 328 330 328 324 326 329 335 342 347 341 338 336 318 272 238 216 210 208 207 206 203 203 202 204 207 209 209 210 210 209 209
252 252 252 250 249 253 261 281 298 307 316 321 324 323 324 323 322 326 331 335 342 348 349 346 345 340 329 309 266 235 221 214 210 208 206 206 207 206 209 211 212 209 207 207
267 262 262 270 265 250 246 251 264 278 286 297 307 312 317 321 324 327 331 335 340 345 347 349 350 350 345 339 327 307 275 245 224 214 210 210 208 209 211 211 209 205 201 201